Вернуться в каталог

QIANFAN-154

АктивенСвязьPO
NORAD 69113·PAYLOAD·🇨🇳 China

Запущен May 17, 2026 с Wenchang Space Launch Site

Loading…

Ближайшие Пролёты (ближайшие 24 часа)

TLE

СвежийSource: Space-Track

Эпоха: Sep 14, 2026, 22:11 UTC

1 69113U 26108K   26257.92438078  .00000095  00000-0  12899-3 0  9996
2 69113  89.0192  13.0964 0002117 106.5327 253.6057 13.51025959 16554

Отслеживайте QIANFAN-154 в реальном времени с AllMySat

Download on the App Store